Weather History for Malmstrom AFB, MT

Change the Weather History Date:

Tuesday, October 1, 2013

  Actual Average (KGTF) Record (KGTF)
Temperature  
Mean Temperature 46 °F 50 °F  
Max Temperature 57 °F 64 °F 91 °F (1992)
Min Temperature 35 °F 37 °F 22 °F (1950)
Degree Days  
Heating Degree Days 19 15  
Month to date heating degree days 15  
Since 1 July heating degree days 422  
Cooling Degree Days 0 0  
Month to date cooling degree days 0  
Year to date cooling degree days 297  
Moisture  
Dew Point 27 °F    
Average Humidity 44    
Maximum Humidity 70    
Minimum Humidity 24    
Precipitation  
Precipitation 0.00 in 0.04 in 0.45 in (1914)
Month to date precipitation 0.04  
Year to date precipitation 12.79  
Snow  
Snow 0.00 in 0.10 in 1.50 in (1898)
Month to date snowfall 0.1  
Since 1 July snowfall 1.6  
Since 1 September snowfall 1.3  
Snow Depth -    
Sea Level Pressure  
Sea Level Pressure 29.96 in    
Wind  
Wind Speed 18 mph (SSW)    
Max Wind Speed 24 mph    
Max Gust Speed 38 mph    
Visibility 10 miles    
Events      
T = Trace of Precipitation, MM = Missing Value Source: NWS Daily Summary

Daily Weather History Graph

Daily Weather History Graph

Search for Another Location

Airport:

Trip Planner

Search our weather history database for the weather conditions in past years. The results will help you decide how hot, cold, wet, or windy it might be!

Date:

Astronomy

Oct. 01, 2013 Rise Set
Actual Time 7:24 AM MDT 7:03 PM MDT
Civil Twilight 6:53 AM MDT 7:34 PM MDT
Nautical Twilight 6:17 AM MDT 8:09 PM MDT
Astronomical Twilight 5:41 AM MDT 8:45 PM MDT
Moon 3:50 AM MDT (10/1) 5:18 PM MDT (10/1)
Length of Visible Light 12h 40m
Length of Day
11h 39m
Waning Crescent, 11% of the Moon is Illuminated
Oct 1
Waning Crescent
Oct 4
New
Oct 11
First Quarter
Oct 18
Full
Oct 26
Last Quarter

Hourly Weather History & Observations

Time (MDT) Temp. Windchill Dew Point Humidity Pressure Visibility Wind Dir Wind Speed Gust Speed Precip Events Conditions
12:56 AM 46.9 °F - 28.0 °F 48% 29.88 in 10.0 mi SSW 18.4 mph 32.2 mph N/A   Clear
1:56 AM 48.0 °F - 28.0 °F 46% 29.88 in 10.0 mi SSW 23.0 mph 29.9 mph N/A   Clear
3:56 AM 46.9 °F - 28.0 °F 48% 29.90 in 10.0 mi SSW 23.0 mph 31.1 mph N/A   Clear
4:56 AM 45.0 °F 38.5 °F 28.9 °F 53% 29.92 in 10.0 mi SSW 13.8 mph - N/A   Clear
5:56 AM 45.0 °F 38.2 °F 28.9 °F 53% 29.93 in 10.0 mi SSW 15.0 mph - N/A   Clear
6:56 AM 45.0 °F 38.2 °F 28.9 °F 53% 29.94 in 10.0 mi South 15.0 mph - N/A   Clear
7:56 AM 43.0 °F 35.7 °F 28.9 °F 58% 29.94 in 10.0 mi SSW 15.0 mph - N/A   Clear
8:56 AM 48.9 °F - 28.9 °F 46% 29.95 in 10.0 mi South 12.7 mph - N/A   Clear
9:56 AM 52.0 °F - 27.0 °F 38% 29.95 in 10.0 mi SSW 20.7 mph - N/A   Clear
10:56 AM 54.0 °F - 27.0 °F 35% 29.96 in 10.0 mi SW 24.2 mph 38.0 mph N/A   Clear
11:56 AM 57.0 °F - 27.0 °F 32% 29.96 in 10.0 mi SSW 24.2 mph 33.4 mph N/A   Mostly Cloudy
12:56 PM 57.0 °F - 27.0 °F 32% 29.96 in 10.0 mi SW 21.9 mph 35.7 mph N/A   Partly Cloudy
1:56 PM 57.0 °F - 25.0 °F 29% 29.96 in 10.0 mi SW 21.9 mph 33.4 mph N/A   Scattered Clouds
2:56 PM 57.9 °F - 24.1 °F 27% 29.94 in 10.0 mi SW 24.2 mph 35.7 mph N/A   Clear
3:56 PM 57.9 °F - 21.0 °F 24% 29.95 in 10.0 mi SW 24.2 mph 31.1 mph N/A   Clear
4:56 PM 57.0 °F - 21.0 °F 25% 29.96 in 10.0 mi SW 21.9 mph 31.1 mph N/A   Clear
6:56 PM 53.1 °F - 25.0 °F 34% 29.98 in 10.0 mi SW 15.0 mph 23.0 mph N/A   Clear
7:56 PM 50.0 °F - 26.1 °F 39% 30.01 in 10.0 mi West 8.1 mph - N/A   Clear
8:56 PM 48.0 °F - 26.1 °F 42% 30.03 in 10.0 mi WSW 8.1 mph - N/A   Clear
9:56 PM 37.0 °F - 26.1 °F 65% 30.07 in 10.0 mi Calm Calm - N/A   Clear
10:56 PM 35.1 °F 29.3 °F 26.1 °F 70% 30.07 in 10.0 mi SSE 6.9 mph - N/A   Clear
11:56 PM 37.0 °F 31.6 °F 27.0 °F 67% 30.06 in 10.0 mi South 6.9 mph - N/A   Clear